Location: Pic du Midi - T1M
(42.9366°N, 0.1426°E)
Time: 10:49:11
(UTC+01:00)

X-37B - Pass Details

Date: 18 June 2021
Orbit: 383 x 392 km, 45.0° (Epoch: 01 July)

Event Time Altitude Azimuth Distance (km) Brightness Sun altitude
Exits shadow 01:48:16 21° 73° (ENE) 927 2.7 -22.8°
Drops below altitude 10° 01:49:27 10° 74° (ENE) 1,399 3.7 -22.7°
Sets 01:51:31 0° 75° (ENE) 2,255 4.8 -22.6°
